Tracking 19717 objects as of 24-Jun-2019
HD Live streaming from Space Station
objects crossing your sky now

LEMUR 2 DAVEWILSON

Track LEMUR 2 DAVEWILSON now!
10-day predictions
LEMUR 2 DAVEWILSON is classified as:


NORAD ID: 43126
Int'l Code: 2018-004R
Perigee: 494.4 km
Apogee: 506.0 km
Inclination: 97.5 °
Period: 94.5 minutes
Semi major axis: 6871 km
RCS: Unknown
Launch date: January 12, 2018
Source: United States (US)
Launch site: SRIHARIKOTA (SRI)
aabbcc
Your satellite tracking list
Your tracking list is empty




NASA's NSSDC Master Catalog

Two Line Element Set (TLE):
1 43126U 18004R   19175.18849969  .00001381  00000-0  59595-4 0  9996
2 43126  97.4893 243.2636 0008450 225.8509 134.2034 15.24228010 80350
Source of the keplerian elements: AFSPC